Soldotna, AK

3:24 PM AKDT on June 28, 2017 (GMT -0800)
Soldotna

Weather History for PASX - January, 2012

Change the Weather History Date:

Friday, January 13, 2012

  Actual Average Record
Temperature  
Mean Temperature 0 °F -  
Max Temperature 10 °F 19 °F 41 °F (1997)
Min Temperature -13 °F 1 °F -32 °F (1966)
Degree Days  
Heating Degree Days 64    
Moisture  
Dew Point -4 °F    
Average Humidity 83    
Maximum Humidity 100    
Minimum Humidity 65    
Precipitation  
Precipitation 0.00 in - - ()
Sea Level Pressure  
Sea Level Pressure 30.20 in    
Wind  
Wind Speed 0 mph (East)    
Max Wind Speed 4 mph    
Max Gust Speed -    
Visibility 6 miles    
Events      
Averages and records for this station are not official NWS values.
T = Trace of Precipitation, MM = Missing Value Source: NWS Daily Summary

Daily Weather History Graph

Daily Weather History Graph

Search for Another Location

Airport or City:

Trip Planner

Search our weather history database for the weather conditions in past years. The results will help you decide how hot, cold, wet, or windy it might be!

Date:

Astronomy

Jan. 13, 2012 Rise Set
Actual Time 9:58 AM AKST 4:27 PM AKST
Civil Twilight 9:04 AM AKST 5:21 PM AKST
Nautical Twilight 8:08 AM AKST 6:17 PM AKST
Astronomical Twilight 7:17 AM AKST 7:08 PM AKST
Moon 11:39 PM AKST (1/13) 10:41 AM AKST (1/13)
Length of Visible Light 8h 17m
Length of Day
6h 28m
Waning Gibbous, 77% of the Moon is Illuminated
Jan 13
Waning Gibbous
Jan 16
Last Quarter
Jan 22
New
Jan 30
First Quarter
Feb 7
Full

Hourly Weather History & Observations

Time (AKST) Temp. Windchill Dew Point Humidity Pressure Visibility Wind Dir Wind Speed Gust Speed Precip Events Conditions
12:16 AM 10.4 °F - 8.6 °F 92% 29.95 in 1.5 mi Calm Calm - N/A   Overcast
12:36 AM 10.4 °F 4.0 °F 8.6 °F 92% 29.96 in 1.5 mi WNW 3.5 mph - N/A   Overcast
12:56 AM 10.4 °F - 8.6 °F 92% 29.98 in 2.5 mi Calm Calm - N/A   Overcast
1:16 AM 10.4 °F - 8.6 °F 92% 29.98 in - Calm Calm - N/A   Overcast
1:36 AM 10.4 °F - 6.8 °F 85% 30.00 in - Calm Calm - N/A   Overcast
1:56 AM 10.4 °F - 6.8 °F 85% 30.01 in 2.5 mi Calm Calm - N/A   Overcast
2:16 AM 10.4 °F - 8.6 °F 92% 30.02 in 1.5 mi Calm Calm - N/A   Overcast
2:36 AM 10.4 °F 4.0 °F 8.6 °F 92% 30.03 in 3.0 mi East 3.5 mph - N/A   Overcast
2:56 AM 10.4 °F - 6.8 °F 85% 30.04 in 5.0 mi Calm Calm - N/A   Overcast
3:16 AM 8.6 °F - 3.2 °F 79% 30.05 in 4.0 mi Calm Calm - N/A   Overcast
3:36 AM 6.8 °F - 1.4 °F 79% 30.06 in 7.0 mi Calm Calm - N/A   Overcast
3:56 AM 6.8 °F - 3.2 °F 85% 30.07 in - Calm Calm - N/A   Unknown
4:16 AM 5.0 °F - 1.4 °F 85% 30.08 in - Calm Calm - N/A   Overcast
4:36 AM 6.8 °F - 3.2 °F 85% 30.09 in 2.0 mi Calm Calm - N/A   Overcast
4:56 AM 6.8 °F - 1.4 °F 79% 30.10 in 3.0 mi Calm Calm - N/A   Overcast
5:16 AM 6.8 °F - 3.2 °F 85% 30.10 in - Calm Calm - N/A   Unknown
5:36 AM 6.8 °F - 3.2 °F 85% 30.11 in 2.0 mi Calm Calm - N/A   Overcast
5:56 AM 6.8 °F - 1.4 °F 79% 30.12 in 5.0 mi Calm Calm - N/A   Overcast
6:16 AM 3.2 °F - 1.4 °F 92% 30.12 in 5.0 mi Calm Calm - N/A   Mostly Cloudy
6:36 AM 3.2 °F - 1.4 °F 92% 30.13 in 7.0 mi Calm Calm - N/A   Clear
6:56 AM 1.4 °F - -2.2 °F 85% 30.14 in 7.0 mi Calm Calm - N/A   Partly Cloudy
7:16 AM -0.4 °F - -2.2 °F 92% 30.15 in 7.0 mi Calm Calm - N/A   Mostly Cloudy
7:36 AM -0.4 °F - -4.0 °F 85% 30.16 in 5.0 mi Calm Calm - N/A   Overcast
7:56 AM 1.4 °F - -0.4 °F 92% 30.17 in 3.0 mi Calm Calm - N/A   Overcast
8:16 AM -0.4 °F - -5.8 °F 78% 30.18 in 5.0 mi Calm Calm - N/A   Mostly Cloudy
8:36 AM -0.4 °F - -5.8 °F 78% 30.19 in 5.0 mi Calm Calm - N/A   Partly Cloudy
8:56 AM -2.2 °F - -7.6 °F 78% 30.19 in 8.0 mi Calm Calm - N/A   Clear
9:16 AM -4.0 °F - -9.4 °F 78% 30.21 in 8.0 mi Calm Calm - N/A   Clear
9:36 AM -5.8 °F - -9.4 °F 84% 30.22 in 7.0 mi Calm Calm - N/A   Clear
9:56 AM -5.8 °F - -14.8 °F 65% 30.23 in 7.0 mi Calm Calm - N/A   Clear
10:16 AM -7.6 °F - -11.2 °F 84% 30.23 in 7.0 mi Calm Calm - N/A   Clear
10:36 AM -9.4 °F - -14.8 °F 77% 30.24 in 7.0 mi Calm Calm - N/A   Clear
10:56 AM -7.6 °F - -9.4 °F 92% 30.24 in 6.0 mi Calm Calm - N/A   Clear
11:16 AM -9.4 °F - -18.4 °F 65% 30.25 in 3.0 mi Calm Calm - N/A   Clear
11:36 AM -7.6 °F - -7.6 °F 100% 30.27 in 6.0 mi Calm Calm - N/A   Clear
11:56 AM -7.6 °F - -16.6 °F 65% 30.27 in 6.0 mi Calm Calm - N/A   Clear
12:16 PM -5.8 °F -14.5 °F -7.6 °F 92% 30.28 in 7.0 mi East 3.5 mph - N/A   Clear
12:36 PM -2.2 °F -10.4 °F -5.8 °F 85% 30.29 in 6.0 mi East 3.5 mph - N/A   Clear
12:56 PM -4.0 °F - -13.0 °F 65% 30.30 in 7.0 mi Calm Calm - N/A   Clear
1:16 PM -4.0 °F - -7.6 °F 85% 30.30 in 5.0 mi Calm Calm - N/A   Clear
1:36 PM -2.2 °F - -5.8 °F 85% 30.31 in 7.0 mi Calm Calm - N/A   Clear
1:56 PM -0.4 °F - -5.8 °F 78% 30.32 in 7.0 mi Calm Calm - N/A   Clear
2:16 PM -0.4 °F - -5.8 °F 78% 30.32 in 7.0 mi Calm Calm - N/A   Clear
2:36 PM -0.4 °F - -4.0 °F 85% 30.33 in 7.0 mi Calm Calm - N/A   Clear
2:56 PM -2.2 °F - -5.8 °F 85% 30.34 in 7.0 mi Calm Calm - N/A   Clear
3:16 PM -0.4 °F - -4.0 °F 85% 30.35 in 7.0 mi Calm Calm - N/A   Clear
3:36 PM -2.2 °F - -7.6 °F 78% 30.36 in 4.0 mi Calm Calm - N/A   Clear
3:56 PM -2.2 °F - -9.4 °F 71% 30.37 in 7.0 mi Calm Calm - N/A   Clear
4:16 PM -4.0 °F - -7.6 °F 85% 30.38 in 7.0 mi Calm Calm - N/A   Clear
4:36 PM -7.6 °F -16.5 °F -14.8 °F 71% 30.39 in 7.0 mi ESE 3.5 mph - N/A   Clear
4:56 PM -2.2 °F - - N/A% 30.39 in 6.0 mi Calm Calm - N/A   Clear
5:16 PM -5.8 °F - -14.8 °F 65% 30.40 in 7.0 mi Calm Calm - N/A   Clear
5:36 PM -9.4 °F - -11.2 °F 92% 30.40 in 3.0 mi Calm Calm - N/A   Clear
5:56 PM -9.4 °F - -14.8 °F 77% 30.41 in 8.0 mi Calm Calm - N/A   Clear
6:16 PM -13.0 °F - -18.4 °F 77% 30.43 in 8.0 mi Calm Calm - N/A   Clear
6:36 PM -13.0 °F -22.7 °F -16.6 °F 84% 30.43 in 8.0 mi East 3.5 mph - N/A   Clear
6:56 PM -13.0 °F - -20.2 °F 70% 30.44 in 8.0 mi Calm Calm - N/A   Clear
7:16 PM -14.8 °F - -16.6 °F 92% 30.45 in 8.0 mi Calm Calm - N/A   Clear
7:36 PM -14.8 °F -24.8 °F -25.6 °F 58% 30.46 in 9.0 mi East 3.5 mph - N/A   Clear
7:56 PM -16.6 °F - -23.8 °F 70% 30.47 in 8.0 mi Calm Calm - N/A   Clear
8:16 PM -16.6 °F - -18.4 °F 92% 30.48 in 8.0 mi Calm Calm - N/A   Clear
8:36 PM -18.4 °F - -25.6 °F 70% 30.48 in 9.0 mi Calm Calm - N/A   Clear
8:56 PM -18.4 °F -28.9 °F -20.2 °F 91% 30.48 in 8.0 mi East 3.5 mph - N/A   Clear
9:16 PM -18.4 °F -28.9 °F -23.8 °F 76% 30.49 in 8.0 mi ENE 3.5 mph - N/A   Clear
9:36 PM -18.4 °F - -25.6 °F 70% 30.50 in 8.0 mi Calm Calm - N/A   Clear
9:56 PM -18.4 °F -28.9 °F -23.8 °F 76% 30.51 in 8.0 mi NE 3.5 mph - N/A   Clear
10:16 PM -20.2 °F -30.9 °F -23.8 °F 83% 30.51 in 8.0 mi ENE 3.5 mph - N/A   Clear
10:36 PM -18.4 °F -28.9 °F -25.6 °F 70% 30.52 in 8.0 mi NE 3.5 mph - N/A   Clear
10:56 PM -20.2 °F -30.9 °F -23.8 °F 83% 30.52 in 8.0 mi ENE 3.5 mph - N/A   Clear
11:16 PM -18.4 °F -28.9 °F -23.8 °F 76% 30.53 in 8.0 mi NNE 3.5 mph - N/A   Clear
11:36 PM -20.2 °F - -23.8 °F 83% 30.55 in 8.0 mi Calm Calm - N/A   Clear
11:56 PM -22.0 °F - - N/A% 30.56 in 9.0 mi Calm Calm - N/A   Clear